User: anonymous   Login
Location: Asheville, NC
(35.6000°N, 82.5500°W)
Time: 03:42:56
(UTC-04:00)
Language:

PCSat - Orbit

View from above orbital plane
View from above orbital plane
View from above satellite
View from above satellite

Ground track
Ground track

The orbit data is extracted from the following two-line orbital elements,

1 26931U 01043C   18110.95366480 +.00000003 +00000-0 +32956-4 0  9993
2 26931 067.0532 017.0898 0007092 281.7612 078.2694 14.30501491864297
Epoch (UTC): 20 April 2018 22:53:16
Eccentricity: 0.0007092
inclination: 67.0532°
perigee height: 785 km
apogee height: 795 km
right ascension of ascending node: 17.0898°
argument of perigee: 281.7612°
revolutions per day: 14.30501491
mean anomaly at epoch: 78.2694°
orbit number at epoch: 86429

The dashed part of the orbit path shows where the satellite is in the earth's shadow,  

DLR